Regional Weather Roundup
Issued by NWS

Home | Current Version | Previous Version | Graphics & Text | Print | Product List | Glossary On
Versions: 1 2 3 4 5 6 7 8 9 10 11 12 13 14 15 16 17 18 19 20 21 22 23 24 25 26 27 28 29 30 31 32 33 34 35 36 37 38 39 40 41 42 43 44 45 46 47 48 49 50
330
ASUS43 KMKX 201420
RWRWI

WISCONSIN REGIONAL WEATHER ROUNDUP
NATIONAL WEATHER SERVICE MILWAUKEE/SULLIVAN WI
800 AM CST FRI JAN 20 2017

NOTE: "FAIR" INDICATES FEW OR NO CLOUDS BELOW 12,000 FEET WITH NO
SIGNIFICANT WEATHER AND/OR OBSTRUCTIONS TO VISIBILITY.

WIZ001-002-006>008-014>016-023>028-201500-
NORTHWEST WISCONSIN

CITY           SKY/WX    TMP DP  RH WIND       PRES   REMARKS
SUPERIOR ARPT  CLOUDY    34  34 100 E6        29.68S FOG     WCI  28
ASHLAND        CLOUDY    34  30  85 CALM      29.69S
HAYWARD        LGT RAIN  36  33  89 E5        29.67S WCI  32
SIREN          DRIZZLE   35  35  98 CALM      29.65S
CUMBERLAND     RAIN      34  32  93 SE7       29.64S WCI  28
RICE LAKE      DRIZZLE   34  34  99 E5        29.66F WCI  30
CHETEK         DRIZZLE   34  34  99 SE3       29.66S
LADYSMITH      RAIN      35  34  96 E6        29.69S WCI  30
EAU CLAIRE     CLOUDY    35  35 100 E5        29.65S FOG     WCI  31
MENOMONIE        N/A    N/A N/A N/A MISG        N/A
NEW RICHMOND   CLOUDY    34  34 100 E5        29.64S FOG     WCI  30
OSCEOLA        LGT SNOW  35  35 100 E6        29.67R WCI  30
$$

WIZ003>005-009-010-017-018-201500-
NORTH CENTRAL WISCONSIN

CITY           SKY/WX    TMP DP  RH WIND       PRES   REMARKS
MANITOWISH WTR MIX PCPN  30  30 100 CALM      29.68R
ARBOR VITAE    MIX PCPN  32  31  96 S3        29.68S
WOODRUFF       MIX PCPN  32  31  96 S3        29.68S
RHINELANDER    FRZ RAIN  32  32 100 CALM      29.68F FOG
EAGLE RIVER    CLOUDY    32  31  99 CALM      29.69S
LAND O LAKES   CLOUDY    28  28  99 CALM      29.70S
PHILLIPS       LGT RAIN  32  32  99 CALM      29.67S
TOMAHAWK       LGT RAIN  32  31  98 CALM      29.69S VSB 3/4
MEDFORD        DRIZZLE   33  32  98 E6        29.66S WCI  27
MERRILL        LGT RAIN  33  33 100 E5          N/A  WCI  28
$$

WIZ029-030-035-036-043>047-201500-
CENTRAL WISCONSIN

CITY           SKY/WX    TMP DP  RH WIND       PRES   REMARKS
WAUSAU         MIX PCPN  32  32 100 E5        29.67F FOG     WCI  27
MOSINEE        FRZ RAIN  32  32 100 E7        29.69S WCI  26
MARSHFIELD     CLOUDY    33  31  92 E9        29.65S FOG     WCI  25
STEVENS POINT  MIX PCPN  31  31 100 NE7       29.68F WCI  24
WAUPACA        CLOUDY    34  33  96 CALM      29.69F FOG
WAUTOMA        CLOUDY    33  33 100 NE5       29.68S FOG     WCI  29
WISC RAPIDS    CLOUDY    34  33  96 E7        29.68S WCI  28
CAMP DOUGLAS   CLOUDY    34  34 100 E3        29.66R FOG
$$

WIZ011>013-019>022-031-037>040-048>050-201500-
NORTHEAST WISCONSIN

CITY           SKY/WX    TMP DP  RH WIND       PRES   REMARKS
ANTIGO         MIX PCPN  32  32 100 CALM      29.69S
SHAWANO        RAIN      34  33  95 CALM      29.71S
OCONTO         NOT AVBL
STURGEON BAY   FOG       32  32 100 N5        29.73R VSB 1/4 WCI  27
GREEN BAY      LGT RAIN  34  34 100 NE9       29.71S FOG     WCI  27
MANITOWOC      LGT RAIN  35  34  96 N3        29.70F VSB 1/4
APPLETON       DRZL/FOG  34  34 100 MISG      29.68S VSB 1
CLINTONVILLE   CLOUDY    32  32 100 CALM      29.70S FOG
OSHKOSH        MIX PCPN  33  32  96 NE6       29.68S FOG     WCI  28
$$

WIZ032>034-041-042-053>061-201500-
SOUTHWEST WISCONSIN

CITY           SKY/WX    TMP DP  RH WIND       PRES   REMARKS
LA CROSSE      FOG       36  34  92 CALM      29.65S VSB 1/4
SPARTA         DRIZZLE   33  33 100 E3        29.66S
VIROQUA        CLOUDY    34  34 100 E7        29.62F VSB 1/2 WCI  28
BOSCOBEL       FOG       36  35  96 NE3       29.65F VSB 3/4
PRAIRIE DU CHI FOG       34  33  96 CALM      29.64S VSB 1/2
PLATTEVILLE    CLOUDY    35  35 100 E6        29.62F VSB 3/4 WCI  30
$$

WIZ056-057-062-063-064-067-068-201500-
SOUTH CENTRAL WISCONSIN

CITY           SKY/WX    TMP DP  RH WIND       PRES   REMARKS
REEDSBURG      DRIZZLE   33  33 100 E3        29.65F
BARABOO/DELLS  FOG       33  33  99 E5        29.65S VSB 3/4 WCI  29
LONE ROCK      FOG       35  34  96 E3        29.65S VSB 1
MINERAL POINT  CLOUDY    36  36 100 E6        29.62F FOG     WCI  31
MADISON        CLOUDY    35  34  96 NE6       29.66S FOG     WCI  30
MIDDLETON      CLOUDY    35  35 100 N3        29.65S
WATERTOWN      DRIZZLE   35  35 100 CALM      29.65R
MONROE         FOG       34  34 100 NE5       29.63R VSB<1/4 WCI  30
JANESVILLE     CLOUDY    37  37 100 E7        29.63S WCI  32
$$

WIZ051-052-058>065-066-070>072-201500-
SOUTHEAST WISCONSIN

CITY           SKY/WX    TMP DP  RH WIND       PRES   REMARKS
MILWAUKEE      LGT RAIN  38  36  92 NE9       29.66S VSB 1/2 WCI  31
WAUKESHA       RAIN      34  34 100 NE7       29.65F WCI  28
MILWAUKEE/TIMM DRIZZLE   36  34  93 NE5       29.66F WCI  32
RACINE         LGT RAIN  37  35  92 NE9       29.66F VSB 1   WCI  30
KENOSHA        LGT RAIN  37  36  96 NE12      29.64S FOG     WCI  29
FOND DU LAC    LGT RAIN  35  32  88 NE7       29.67S FOG     WCI  29
SHEBOYGAN      LGT RAIN  35  34  96 NE7       29.67F VSB 1/4 WCI  29
WEST BEND      DRZL/FOG  34  34 100 NE6       29.66S VSB 3/4 WCI  29
JUNEAU         LGT RAIN  34  33  98 NE6       29.66S WCI  29
$$

LSZ147-162-201500-
LAKE SUPERIOR

STATION/POSITION TIME  TEMP    WIND        PRES    WAVE
                       AIR SEA DIR/SP/G            HT/PER
                 (UTC) (F)     (DEG/KT/KT) (MB)    (FT/S)
DEVILS ISLAND    1400   35     150/  4/  5 1006.4R
PORT WING        1340   34     100/  1/  2 1005.8R
SAXON HARBOR     1340   33      CALM  /  3 1005.8S
$$

LMZ867-665-643>646-201500-
LAKE MICHIGAN

STATION/POSITION TIME  TEMP    WIND        PRES    WAVE
                       AIR SEA DIR/SP/G            HT/PER
                 (UTC) (F)     (DEG/KT/KT) (MB)    (FT/S)
NORTHPORT PIER   1340   32     320/  2/  3 1006.8S
SISTER BAY       1335   33        CALM       N/A
KEWAUNEE LAKESHO 1354   35      30/  4/  7 1005.9R
SHEBOYGAN LAKESH 1400   35     360/  9/ 10 1005.5F
PORT WASHINGTON  1330   36      40/  7/  9 1005.8F
KENOSHA   LAKESH 1400   35      40/ 12/ 13 1004.1
$$

TC  - TEMPERATURE IN CELSIUS
VSB - VISIBILITY IN STATUTE MILES
WCI - WIND CHILL INDEX
HX  - HEAT INDEX





USA.gov is the U.S. government's official web portal to all federal, state and local government web resources and services.